Location: Rimouski
(48.4330°N, 68.5170°W)
Time: 04:49:32
(UTC-05:00)

Daily predictions for brighter satellites

Satellite Brightness Start Highest point End
(mag) Time Altitude Azimuth Time Altitude Azimuth Time Altitude Azimuth
SL-16 R/B 4.5 03:15:19 17° ESE 03:15:19 17° ESE 03:16:37 10° SE
Cosmos 2297 Rocket 3.9 03:23:33 29° ENE 03:23:33 29° ENE 03:26:38 10° NE
Cosmos 2227 Rocket 3.7 03:37:00 30° NE 03:37:00 30° NE 03:39:50 10° NNE
ATLAS 2AS CENTAUR R/B 4.3 03:41:15 28° N 03:43:31 33° NNE 03:50:32 10° E
ADEOS II 4.2 03:46:02 10° NNE 03:47:21 18° NNE 03:47:21 18° NNE
Cosmos 1725 Rocket 4.2 03:56:04 69° E 03:56:04 69° E 04:02:08 10° NNE
Cosmos 2082 4.4 04:06:38 46° NNE 04:06:38 46° NNE 04:10:36 10° NNE
USA 234 3.7 04:06:31 10° E 04:12:51 53° NNE 04:14:07 47° NNW
Cosmos 1603 4.3 04:14:10 43° NNE 04:15:31 53° NE 04:21:01 10° SE
NOSS 3-1 (C) 3.9 04:14:10 55° NNW 04:16:07 84° NE 04:24:23 10° SE
Cosmos 2151 4.0 04:22:41 43° ESE 04:22:41 43° ESE 04:26:04 10° SSE
Cosmos 1538 Rocket 3.9 04:32:58 86° WNW 04:33:05 87° WSW 04:38:27 10° SSE
Cosmos 1842 Rocket 4.3 04:37:51 45° NNE 04:37:51 45° NNE 04:40:57 10° NNE
COSMO-SKYMED 1 2.8 04:35:14 10° SSE 04:38:54 63° SSE 04:38:54 63° SSE
Ariane Rocket 4.4 04:36:50 10° NNE 04:41:36 38° E 04:46:19 10° SSE
Cosmos 2233 Rocket 3.9 04:36:20 10° S 04:42:36 87° W 04:48:57 10° N
SL-8 R/B 3.8 04:47:33 62° SSW 04:47:33 62° SSW 04:52:15 10° ESE
Genesis I 4.0 04:49:35 43° SSE 04:49:35 43° SSE 04:52:20 10° SSE
Cosmos 1680 Rocket 4.3 04:44:45 18° N 04:48:35 50° ENE 04:53:44 10° SE
Cosmos 220 Rocket 4.0 04:49:19 70° N 04:49:19 70° N 04:53:15 10° NNE
SL-16 R/B 3.4 04:57:16 26° SW 04:57:16 26° SW 05:00:15 10° S
Cosmos 2346 Rocket 4.3 04:49:45 10° NNW 04:55:49 63° W 05:01:47 10° S
SeaSat 1 2.7 04:52:33 10° NNE 04:57:03 49° NW 04:57:03 49° NW
Sich 1 4.4 04:58:00 10° N 05:02:07 39° ENE 05:06:11 10° SE
Cosmos 2297 Rocket 2.6 05:05:23 39° NW 05:05:27 39° NW 05:10:46 10° NNE
DMSP B5D1-3 4.4 05:01:53 10° S 05:07:00 72° WSW 05:11:15 15° NNW
Cosmos 1633 Rocket 4.4 05:03:04 10° N 05:07:12 39° ENE 05:11:16 10° SE
Cosmos 968 Rocket 3.4 05:06:47 25° SW 05:09:52 65° WNW 05:15:08 10° NNE
Okean-O 4.5 05:10:27 10° N 05:11:44 17° NNW 05:11:44 17° NNW
Coronas F rocket 3.3 05:14:07 20° NE 05:14:54 24° ENE 05:16:59 10° SE
Cosmos 1703 3.3 05:13:11 17° N 05:16:08 81° ENE 05:20:04 10° SSE
ATLAS CENTAUR R/B 3.4 05:16:30 24° NNW 05:18:04 30° NNE 05:25:14 10° ENE
Cosmos 2227 Rocket 3.2 05:18:50 27° NW 05:18:50 27° NW 05:23:32 10° NNE
Cosmos 773 Rocket 4.1 05:17:12 30° NW 05:19:33 54° WSW 05:24:42 10° S
Cosmos 2112 Rocket 4.1 05:19:03 12° NNW 05:23:58 81° ENE 05:29:19 10° SSE
Meteor 1-11 4.4 05:19:44 10° NNW 05:25:21 52° W 05:30:57 10° SSW
Cosmos 2058 3.1 05:24:24 38° NW 05:25:27 47° W 05:29:26 10° SSW
Cosmos 1626 2.1 05:22:14 12° N 05:25:39 81° E 05:29:22 10° SSE
Meteor 1-28 Rocket 3.4 05:22:14 10° S 05:25:52 47° W 05:26:19 44° WNW
Meteor 1-16 Rocket 4.1 05:21:14 10° SSW 05:26:33 59° WNW 05:31:49 10° N
NOAA 6 4.2 05:21:36 10° N 05:26:36 48° WNW 05:31:33 10° SW
NOSS 3-1 (A) 4.1 05:22:15 24° NW 05:27:02 57° WSW 05:35:05 10° SSE
SKYMED 2 4.2 05:23:53 10° SSW 05:27:32 33° WSW 05:27:32 33° WSW
Meteor 2-12 Rocket 4.4 05:21:55 10° S 05:28:04 86° W 05:34:17 10° N
Cosmos 1271 Rocket 2.7 05:25:13 10° SSW 05:28:58 55° WNW 05:32:41 10° N
ADEOS II 3.9 05:26:57 10° NNW 05:28:18 15° NNW 05:28:18 15° NNW
Cosmos 1340 Rocket 3.3 05:34:58 34° W 05:35:17 35° W 05:38:54 10° SSW
ATLAS 2AS CENTAUR R/B 3.3 05:28:41 14° NW 05:35:59 71° NE 05:43:41 10° SE
Cosmos 1464 Rocket 3.9 05:29:39 10° SSW 05:35:59 76° W 05:42:17 10° N
Cosmos 1943 3.1 05:31:26 13° NNW 05:36:36 84° WSW 05:42:17 10° SSE
Cosmos 292 Rocket 3.8 05:33:20 19° NW 05:36:37 59° WSW 05:41:19 10° S
Cosmos 1184 Rocket 2.6 05:34:53 19° NNW 05:37:06 78° W 05:40:25 10° S
Cosmos 1666 Rocket 3.5 05:35:43 10° N 05:40:12 82° W 05:44:40 10° S
Cosmos 2221 2.5 05:35:58 10° SSW 05:40:15 60° WNW 05:44:32 10° N
SMAP 4.0 05:41:12 10° NNE 05:45:46 51° E 05:50:18 10° S
CSL-04 DEB 4.5 05:43:51 10° NNE 05:48:16 79° WNW 05:52:34 10° SSW
Cosmos 1356 Rocket 3.6 05:44:43 12° NNW 05:48:22 48° W 05:52:21 10° S
Cosmos 1777 Rocket 4.0 05:45:11 10° SW 05:50:18 55° WNW 05:55:26 10° NNE
CSL-04 Debris 4.1 05:45:16 10° NNE 05:50:47 81° WNW 05:56:15 10° SSW
Cosmos 1933 Rocket 4.4 05:47:22 10° N 05:51:45 53° ENE 05:56:05 10° SSE
Helios 1B rocket 2.7 05:50:33 10° SSE 05:54:38 70° ENE 05:58:44 10° N
USA 234 3.3 05:49:09 10° SE 05:55:43 76° SW 06:01:28 14° WNW
COSMOS 2406 4.5 05:51:47 10° NNW 05:57:11 39° NE 06:02:33 10° ESE
SPOT 3 Rocket 4.4 05:52:28 10° NNE 05:57:36 55° E 06:02:43 10° S
Tiangong 2 3.9 05:55:52 10° SSW 05:57:45 15° SSE 05:59:37 10° ESE
Cosmos 2151 4.4 05:59:21 17° W 05:59:21 17° W 06:01:44 10° SW
IRS-1A Rocket 4.4 05:54:20 10° NNE 06:00:18 87° WNW 06:06:08 10° SSW
Meteor 2-1 Rocket 4.4 05:56:56 10° SSW 06:02:23 48° WNW 06:08:00 10° N
Cosmos 2263 Rocket 2.8 05:57:55 10° S 06:03:31 62° ESE 06:09:09 10° NNE
SJ-12 3.8 06:07:36 10° N 06:11:41 68° WNW 06:15:43 10° SSW
Cosmos 1470 Rocket 3.5 06:08:28 10° N 06:12:50 88° WSW 06:17:10 10° S
CZ-2C R/B 2.2 06:11:09 10° N 06:15:45 74° WNW 06:20:18 10° SSW
Cosmos 1908 3.2 06:12:02 10° SSW 06:15:49 61° WNW 06:19:38 10° N
COSMO-SKYMED 1 4.4 06:14:45 10° WSW 06:16:06 12° W 06:16:06 12° W
CSL-04 Rocket 3.9 06:11:44 10° N 06:16:46 44° WNW 06:21:44 10° SW
IDEFIX/ARIANE 42P 2.5 06:11:42 10° N 06:16:59 76° WNW 06:22:15 10° SSW
Alouette 2 Rocket 3.6 06:16:37 10° N 06:20:11 64° ENE 06:23:59 10° SSE
CZ-4 R/B 1.5 06:16:25 10° N 06:20:24 56° WNW 06:24:26 10° SSW
Ariane Rocket 3.6 06:15:56 10° N 06:20:30 34° WNW 06:25:03 10° SW
TELKOM 3 2.7 06:21:15 10° WSW 06:23:40 86° S 06:25:47 10° ENE
EP 2 4.3 06:22:27 10° SW 06:25:03 88° SE 06:28:00 10° NE
Iridium 4 Rocket 3.1 06:23:48 10° N 06:28:05 87° E 06:32:37 10° S
Meteor 1-29 3.0 06:24:52 10° S 06:28:20 61° WSW 06:31:50 10° NNW
Cosmos 2228 Rocket 3.1 06:24:25 10° SSW 06:28:48 63° WNW 06:33:11 10° N
Cosmos 1726 2.8 06:25:51 10° S 06:29:29 60° E 06:33:09 10° NNE
COSMOS 2441 4.4 06:27:23 10° NNE 06:32:13 88° W 06:37:00 10° SSW
Cosmos 1634 Rocket 4.1 06:26:05 10° S 06:32:23 89° E 06:38:42 10° N
Meteor 2-2 Rocket 4.4 06:26:39 10° S 06:32:30 90° ENE 06:38:16 10° NNE
SeaSat 1 4.3 06:31:40 10° N 06:33:53 13° NNW 06:36:06 10° WNW
AQUARIUS 4.3 06:31:36 10° N 06:35:59 52° WNW 06:40:21 10° SSW
Cosmos 1300 3.0 06:32:28 10° S 06:36:17 72° E 06:40:07 10° NNE
Cosmos 1898 Rocket 3.6 06:32:15 10° SSW 06:37:32 89° ESE 06:42:53 10° NNE
Sich 1 4.2 06:36:12 10° NW 06:39:35 22° W 06:42:56 10° SW
Cosmos 2150 Rocket 4.2 06:37:26 10° SSW 06:42:52 84° ESE 06:48:15 10° NNE
Cosmos 1633 Rocket 4.2 06:41:22 10° NW 06:44:45 22° W 06:48:08 10° SW
